[[{"header":{"parameterUnit":"m.s-1","parameterCategory":1,"la1":30.2991,"la2":30.254,"lo1":-89.0895,"lo2":-89.0444,"dy":0.0017,"dx":0.0017,"nx":28,"ny":28,"refTime":"2023-09-20T03:00:00:Z","depth":0,"parameterNumber":2,"parameterNumberName":"U-component_of_WINDS"},"data":[0,0,0,0,0,0,0,0,0,0,0,0,0,0,0,0,0,0,0,0,0,0,0,0,0,0,0,0,0,0,0,0,0,0,0,0,0,0,0,0,0,0,0,0,0,0,0,0,0,0,0,0,0,0,0,0,0,0,-2.2501,-2.2501,0,-2.2505,-2.2505,-2.2505,-2.2442,-2.244,-2.2439,-2.2437,-2.2442,-2.2443,-2.2445,0,0,0,0,0,0,0,0,0,0,0,0,0,-2.2444,-2.2445,-2.2501,-2.2501,-2.2501,-2.2505,-2.2505,-2.2505,-2.2442,-2.244,-2.2438,-2.2436,-2.2441,-2.2443,-2.2445,0,0,0,0,0,0,0,0,0,0,0,0,0,-2.246,-2.2445,-2.2501,-2.2471,-2.2468,-2.2505,-2.2505,-2.2505,-2.2443,-2.244,-2.2438,-2.2435,-2.2441,-2.2443,-2.2446,-2.2512,0,0,-2.2453,-2.2454,0,0,0,0,0,0,0,0,-2.2459,-2.2462,-2.2475,-2.2473,-2.247,-2.247,-2.2486,-2.2507,-2.2443,-2.2452,-2.2437,-2.2434,-2.2453,-2.2455,-2.2461,-2.2512,-2.2512,-2.2454,-2.2455,-2.2456,-2.2457,0,0,0,0,0,0,0,-2.2458,-2.2462,-2.2503,-2.2475,-2.2472,-2.2458,-2.2457,-2.249,-2.2467,-2.2451,-2.2447,-2.2448,-2.2451,-2.2459,-2.2461,-2.2512,-2.2453,-2.2456,-2.2457,-2.2458,-2.2619,-2.2622,0,0,0,0,0,0,-2.2461,-2.2461,-2.2503,-2.2503,-2.2458,-2.2461,-2.246,-2.2473,-2.2467,-2.2463,-2.245,-2.2445,-2.2456,-2.2458,-2.2461,-2.2538,-2.2456,-2.2459,-2.246,-2.2617,-2.262,-2.2623,0,0,0,0,0,0,-2.246,-2.2465,-2.2502,-2.2481,-2.2484,-2.2464,-2.2479,-2.2474,-2.2481,-2.2466,-2.2461,-2.2461,-2.2454,-2.2457,-2.25,-2.2537,-2.246,-2.2462,-2.2613,-2.2618,-2.2621,-2.2694,0,0,0,0,0,0,-2.2458,-2.2465,-2.249,-2.2482,-2.2486,-2.2541,-2.2481,-2.2476,-2.2486,-2.2479,-2.2475,-2.2472,-2.2452,-2.2496,-2.2502,-2.2539,-2.2464,-2.261,-2.2615,-2.262,-2.2688,-2.27,-2.271,0,0,0,0,0,-2.2457,-2.251,-2.2491,-2.2496,-2.2516,-2.2543,-2.2546,-2.2521,-2.2489,-2.2514,-2.2504,-2.2472,-2.2533,-2.2501,-2.2507,-2.2546,-2.2607,-2.2614,-2.262,-2.2683,-2.2697,-2.271,0,0,0,0,0,0,-2.2523,-2.2508,-2.2487,-2.2539,-2.2543,-2.2533,-2.2563,-2.2537,-2.255,-2.2543,-2.2513,-2.2512,-2.256,-2.2557,-2.2523,-2.261,-2.2564,-2.2572,-2.261,-2.2624,-2.2635,-2.2634,-2.2466,0,0,0,0,0,-2.2544,-2.2567,-2.2553,-2.26,-2.2603,-2.2583,-2.2594,-2.2575,-2.2578,-2.2579,-2.2572,-2.2577,-2.2596,-2.261,-2.2627,-2.2687,-2.2686,-2.2717,-2.2728,-2.2737,-2.2744,-2.2776,-2.279,-2.2643,-2.2643,-2.2643,0,0,-2.2587,-2.2581,-2.2598,-2.2614,-2.2614,-2.2639,-2.2585,-2.2614,-2.2632,-2.2583,-2.2623,-2.2619,-2.2622,-2.2673,-2.2696,-2.2672,-2.2785,-2.2745,-2.2753,-2.2754,-2.2784,-2.2798,-2.281,-2.2647,-2.2647,-2.2646,0,0,-2.2677,-2.2676,-2.2715,-2.2717,-2.2719,-2.2705,-2.2715,-2.2709,-2.2704,-2.2743,-2.2707,-2.273,-2.2764,-2.2768,-2.2774,-2.2869,-2.284,-2.2875,-2.2933,-2.2964,-2.2976,-2.2986,-2.3019,-2.3032,-2.2882,-2.2883,-2.2883,0,-2.2731,-2.2766,-2.2739,-2.277,-2.2779,-2.2736,-2.2776,-2.278,-2.2787,-2.2794,-2.2768,-2.2811,-2.281,-2.2862,-2.2885,-2.2892,-2.2902,-2.2875,-2.2976,-2.2986,-2.2995,-2.3027,-2.3039,-2.2887,-2.2886,-2.2886,-2.2885,0,-2.2832,-2.2858,-2.289,-2.2897,-2.2909,-2.2945,-2.2924,-2.294,-2.292,-2.291,-2.2951,-2.2948,-2.2965,-2.2976,-2.2957,-2.3026,-2.3011,-2.2981,-2.2934,-2.3014,-2.3043,-2.3055,-2.2893,-2.2891,-2.289,-2.2889,0,0,-2.2963,-2.2957,-2.2969,-2.2972,-2.2971,-2.2991,-2.3025,-2.3041,-2.3055,-2.3062,-2.309,-2.3122,-2.3094,-2.3102,-2.3083,-2.3111,-2.3186,-2.3077,-2.3077,-2.3097,-2.3262,-2.3284,-2.3298,-2.3167,-2.3169,-2.3171,-2.3261,0,-2.3052,-2.3109,-2.3086,-2.3145,-2.3169,-2.313,-2.316,-2.3163,-2.3155,-2.3174,-2.3165,-2.3188,-2.3149,-2.3154,-2.318,-2.3171,-2.3218,-2.3164,-2.3193,-2.3195,-2.3193,-2.3314,-2.3337,-2.3422,-2.3273,-2.3275,-2.3276,0,-2.3162,-2.3173,-2.3235,-2.323,-2.324,-2.3267,-2.328,-2.3299,-2.3302,-2.3294,-2.3303,-2.3279,-2.3313,-2.3267,-2.3314,-2.3278,-2.3289,-2.3287,-2.329,-2.3291,-2.324,-2.3318,-2.3449,-2.3461,-2.3294,-2.3292,-2.3291,0,-2.3251,-2.3282,-2.3323,-2.3327,-2.3323,-2.3343,-2.3343,-2.3344,-2.3355,-2.3367,-2.3374,-2.339,-2.3399,-2.3412,-2.3393,-2.3361,-2.3443,-2.3395,-2.3438,-2.3438,-2.3456,-2.3455,-2.359,-2.3464,-2.3464,-2.3464,-2.3463,0,-2.3352,-2.3391,-2.3363,-2.3389,-2.3432,-2.3406,-2.345,-2.3445,-2.3446,-2.347,-2.3438,-2.3461,-2.3435,-2.3456,-2.3442,-2.3483,-2.3488,-2.3483,-2.3478,-2.3485,-2.3486,-2.3491,-2.3485,-2.3467,-2.3466,-2.3466,-2.3465,0,-2.3458,-2.3441,-2.3484,-2.3477,-2.3476,-2.3508,-2.3502,-2.3526,-2.3516,-2.3547,-2.3553,-2.3537,-2.3561,-2.3543,-2.3567,-2.3557,-2.3611,-2.3599,-2.361,-2.3606,-2.365,-2.3646,-2.3793,-2.3811,-2.3674,-2.3675,-2.3676,0,-2.3523,-2.3553,-2.3549,-2.3563,-2.3564,-2.3586,-2.3598,-2.3574,-2.3587,-2.3594,-2.3617,-2.3638,-2.3653,-2.3693,-2.3684,-2.3702,-2.3689,-2.374,-2.3692,-2.3698,-2.369,-2.3688,-2.3691,-2.3749,-2.3751,-2.3752,-2.3753,0,-2.364,-2.3631,-2.3648,-2.3663,-2.3677,-2.3688,-2.3696,-2.3709,-2.3685,-2.3702,-2.3725,-2.3737,-2.3761,-2.3782,-2.3797,-2.3797,-2.3772,-2.3768,-2.3779,-2.3786,-2.3791,-2.3789,-2.3636,-2.3765,-2.3764,-2.3763,-2.3762,-2.3762,-2.3728,-2.3752,-2.3754,-2.3774,-2.3778,-2.3786,-2.3808,-2.3801,-2.382,-2.3837,-2.3822,-2.3851,-2.3854,-2.3872,-2.3875,-2.3898,-2.3877,-2.3893,-2.3897,-2.3901,-2.3907,-2.3788,-2.39,-2.39,-2.39,-2.3899,-2.3899,0,-2.3843,-2.3842,-2.3861,-2.3874,-2.389,-2.3864,-2.3872,-2.3888,-2.3913,-2.3918,-2.3934,-2.3962,-2.3983,-2.3976,-2.3994,-2.4014,-2.4002,-2.4019,-2.4017,-2.4018,-2.3924,-2.3913,-2.4028,-2.4028,-2.4028,-2.4028,-2.4028,-2.4028,-2.3905,-2.3945,-2.3936,-2.3978,-2.3976,-2.4004,-2.401,-2.4019,-2.4023,-2.4055,-2.4072,-2.4067,-2.4068,-2.4086,-2.4105,-2.4102,-2.411,-2.4132,-2.4125,-2.4037,-2.4025,-2.4012,-2.4002,-2.4134,-2.4134,-2.4217,-2.4218,-2.4218]},{"header":{"parameterUnit":"m.s-1","parameterCategory":1,"la1":30.2991,"la2":30.254,"lo1":-89.0895,"lo2":-89.0444,"dy":0.0017,"dx":0.0017,"nx":28,"ny":28,"refTime":"2023-09-20T03:00:00:Z","depth":0,"parameterNumber":3,"parameterNumberName":"V-component_of_WINDS"},"data":[0,0,0,0,0,0,0,0,0,0,0,0,0,0,0,0,0,0,0,0,0,0,0,0,0,0,0,0,0,0,0,0,0,0,0,0,0,0,0,0,0,0,0,0,0,0,0,0,0,0,0,0,0,0,0,0,0,0,3.1356,3.1355,0,3.132,3.132,3.1319,3.1316,3.1316,3.1316,3.1317,3.1275,3.1273,3.1272,0,0,0,0,0,0,0,0,0,0,0,0,0,3.1415,3.1414,3.1356,3.1355,3.1355,3.132,3.132,3.1319,3.1316,3.1316,3.1317,3.1317,3.1275,3.1273,3.1272,0,0,0,0,0,0,0,0,0,0,0,0,0,3.1386,3.1414,3.1356,3.1349,3.1348,3.132,3.132,3.1319,3.1316,3.1316,3.1317,3.1317,3.1276,3.1274,3.1271,3.1246,0,0,3.1265,3.1264,0,0,0,0,0,0,0,0,3.1387,3.1383,3.135,3.1349,3.1348,3.1323,3.1325,3.1294,3.1315,3.1328,3.1317,3.1318,3.129,3.1287,3.1278,3.1244,3.1243,3.1264,3.1263,3.1262,3.1262,0,0,0,0,0,0,0,3.1389,3.1385,3.1341,3.135,3.1349,3.1346,3.1343,3.132,3.1306,3.1327,3.1326,3.1323,3.1289,3.1281,3.1277,3.1242,3.1265,3.1263,3.1261,3.126,3.1185,3.1184,0,0,0,0,0,0,3.1393,3.1387,3.1343,3.134,3.137,3.1345,3.1341,3.133,3.1306,3.1303,3.1322,3.1322,3.1284,3.128,3.1276,3.1245,3.1262,3.126,3.1259,3.1186,3.1185,3.1184,0,0,0,0,0,0,3.1395,3.139,3.1344,3.1363,3.1358,3.1343,3.1332,3.1329,3.1321,3.1303,3.13,3.1316,3.1284,3.1279,3.1254,3.1243,3.1259,3.1257,3.1186,3.1185,3.1184,3.1182,0,0,0,0,0,0,3.1396,3.139,3.1381,3.1363,3.1357,3.1324,3.1331,3.1328,3.1318,3.1318,3.1296,3.1293,3.1284,3.1257,3.1252,3.124,3.1255,3.1187,3.1186,3.1185,3.1183,3.1181,3.1179,0,0,0,0,0,3.1399,3.1381,3.1381,3.1376,3.1346,3.1324,3.1319,3.1312,3.1317,3.1307,3.1296,3.1294,3.1246,3.1255,3.1249,3.1236,3.1188,3.1186,3.1185,3.1183,3.1181,3.1179,0,0,0,0,0,0,3.1396,3.1378,3.1378,3.1354,3.1341,3.1323,3.1311,3.1309,3.1292,3.1293,3.1282,3.1277,3.1253,3.1242,3.1253,3.121,3.1217,3.1214,3.1218,3.1216,3.1214,3.1216,3.1254,0,0,0,0,0,3.1393,3.1378,3.1363,3.1343,3.1337,3.1325,3.1315,3.131,3.1295,3.1288,3.1275,3.1259,3.124,3.1227,3.1209,3.1182,3.1176,3.117,3.1168,3.1167,3.1164,3.1148,3.1145,3.1179,3.1179,3.1179,0,0,3.1385,3.1374,3.1365,3.1342,3.1331,3.1314,3.132,3.1302,3.1289,3.1285,3.1261,3.1251,3.1232,3.1205,3.1193,3.1196,3.1154,3.1165,3.1164,3.1162,3.1146,3.1143,3.114,3.1178,3.1178,3.1178,0,0,3.1363,3.1354,3.1336,3.1326,3.131,3.1302,3.1298,3.1281,3.1275,3.1251,3.1248,3.1232,3.12,3.1186,3.1175,3.115,3.1146,3.1144,3.1133,3.1118,3.1115,3.1113,3.1103,3.1099,3.1141,3.1141,3.1141,0,3.1355,3.1332,3.1327,3.131,3.1299,3.1298,3.1279,3.1268,3.1246,3.1238,3.1242,3.1203,3.119,3.116,3.1154,3.1146,3.1139,3.1145,3.1117,3.1114,3.1112,3.1102,3.1098,3.1141,3.1141,3.1141,3.1141,0,3.1323,3.1306,3.1294,3.1275,3.1263,3.1245,3.1236,3.1225,3.1222,3.1214,3.1189,3.1174,3.1153,3.1146,3.1141,3.1115,3.1117,3.1119,3.1125,3.1108,3.1098,3.1095,3.114,3.1141,3.1141,3.1141,0,0,3.1296,3.1276,3.1271,3.1263,3.1246,3.1232,3.1214,3.1195,3.1185,3.117,3.1153,3.1127,3.1129,3.1116,3.1111,3.1098,3.1077,3.1101,3.11,3.1096,3.1046,3.1044,3.104,3.1076,3.1076,3.1075,3.1047,0,3.1271,3.124,3.1236,3.1207,3.1192,3.1191,3.1175,3.1162,3.1154,3.1138,3.1129,3.111,3.1115,3.1107,3.1094,3.1083,3.1067,3.1085,3.1058,3.1058,3.1062,3.1035,3.1032,3.1006,3.1044,3.1043,3.1043,0,3.1237,3.1224,3.1195,3.118,3.1173,3.1159,3.1141,3.1127,3.1112,3.1107,3.1094,3.1091,3.107,3.1079,3.1049,3.1062,3.1051,3.1044,3.1043,3.1038,3.1048,3.1028,3.0998,3.0994,3.1037,3.1037,3.1038,0,3.1219,3.1193,3.1173,3.1166,3.1148,3.1138,3.113,3.1116,3.1105,3.1089,3.1082,3.1064,3.1053,3.1038,3.1029,3.1036,3.1,3.1008,3.0993,3.0994,3.0984,3.0984,3.095,3.098,3.098,3.098,3.098,0,3.119,3.1172,3.1164,3.1151,3.1131,3.1126,3.1105,3.1097,3.1085,3.1069,3.1067,3.1052,3.1042,3.1025,3.1018,3.0994,3.0989,3.0983,3.0981,3.0983,3.0983,3.0974,3.0975,3.0979,3.0979,3.098,3.098,0,3.1166,3.116,3.1137,3.1124,3.112,3.1105,3.1093,3.1079,3.1073,3.1053,3.1048,3.1036,3.1016,3.1007,3.0981,3.0977,3.0949,3.0949,3.0955,3.0953,3.0939,3.094,3.0896,3.0889,3.0925,3.0925,3.0925,0,3.1147,3.1133,3.1119,3.111,3.1102,3.1086,3.1076,3.107,3.1059,3.1042,3.103,3.1011,3.0995,3.0963,3.0951,3.0931,3.093,3.0916,3.0926,3.0928,3.0928,3.0928,3.0926,3.0913,3.0913,3.0913,3.0912,0,3.1114,3.1112,3.1098,3.1083,3.1071,3.1059,3.1046,3.1038,3.103,3.1018,3.0999,3.0986,3.0962,3.0942,3.0922,3.0912,3.091,3.091,3.0905,3.0905,3.0908,3.0905,3.0947,3.091,3.091,3.091,3.091,3.0911,3.1091,3.1078,3.1067,3.1051,3.1042,3.103,3.1017,3.101,3.0994,3.0975,3.0973,3.0952,3.0937,3.0911,3.09,3.0883,3.0885,3.0879,3.0877,3.0875,3.0874,3.0913,3.0879,3.0879,3.0879,3.0879,3.0879,0,3.1056,3.1049,3.1035,3.1019,3.1006,3.1009,3.0995,3.0984,3.0966,3.0954,3.0939,3.0917,3.0898,3.0885,3.0866,3.0854,3.0853,3.0849,3.0849,3.0846,3.0873,3.0878,3.085,3.085,3.085,3.085,3.085,3.085,3.1037,3.1016,3.1013,3.0988,3.098,3.0961,3.0953,3.0942,3.0932,3.0908,3.0893,3.0887,3.0873,3.0853,3.0836,3.0832,3.0824,3.082,3.0817,3.0841,3.0844,3.0847,3.0852,3.0819,3.0819,3.0791,3.0791,3.0791]}]]